Total_Precipitation_Accumulation
2.13 2.28 2.22 2.15 2.12 2.15 2.24 2.35 2.43 2.33 2.02 1.54 1.36 1.34 1.38 1.46 1.84 1.72 1.59 1.60 1.46 1.35 1.28 1.33 1.45 1.59 1.79 2.07 2.29 2.46 2.53 2.60 2.67 2.83 2.96 2.94 3.05 3.12
1.97 2.08 2.19 2.17 2.17 2.16 2.25 2.29 2.30 2.33 2.19 1.75 1.47 1.33 1.43 1.36 1.62 1.39 1.49 1.72 1.52 1.32 1.22 1.20 1.25 1.37 1.50 1.69 1.73 1.69 1.68 1.72 1.90 2.21 2.36 2.33 2.35 2.49
1.77 1.80 1.94 2.04 2.16 2.17 2.18 2.20 2.26 2.27 2.15 1.89 1.54 1.40 1.54 1.57 1.62 1.44 1.38 1.42 1.36 1.34 1.25 1.16 1.13 1.21 1.27 1.42 1.52 1.38 1.29 1.29 1.38 1.61 1.83 1.92 1.91 1.92
1.66 1.70 1.72 1.74 1.84 1.96 2.08 2.05 2.13 2.18 2.19 2.07 1.77 1.58 1.61 1.71 1.88 1.83 1.70 1.57 1.50 1.61 1.56 1.39 1.27 1.27 1.32 1.39 1.49 1.39 1.17 1.12 1.14 1.21 1.43 1.68 1.83 1.86
1.42 1.51 1.53 1.63 1.75 1.74 1.80 1.88 1.96 2.02 2.18 2.15 2.03 1.92 1.81 1.77 1.84 1.83 1.88 1.99 1.87 1.81 1.85 1.68 1.52 1.44 1.41 1.44 1.49 1.46 1.29 1.17 1.13 1.18 1.22 1.37 1.55 1.70
1.28 1.37 1.46 1.53 1.63 1.66 1.66 1.79 1.92 2.02 2.08 2.07 2.00 1.93 1.91 1.90 1.90 1.89 1.99 2.12 2.19 2.00 1.92 1.80 1.78 1.72 1.60 1.55 1.51 1.50 1.45 1.33 1.24 1.26 1.27 1.29 1.42 1.51
1.26 1.30 1.35 1.40 1.45 1.53 1.51 1.66 1.80 1.98 2.07 2.11 1.98 1.87 1.82 1.85 1.84 1.84 1.95 2.21 2.26 2.23 2.15 1.97 1.81 1.65 1.62 1.64 1.62 1.60 1.57 1.48 1.36 1.34 1.37 1.34 1.39 1.50
1.17 1.21 1.32 1.40 1.37 1.34 1.32 1.38 1.50 1.58 1.77 1.90 1.94 1.82 1.72 1.72 1.84 1.96 1.97 2.15 2.31 2.19 2.05 2.11 1.98 1.86 1.70 1.61 1.72 1.72 1.62 1.54 1.42 1.36 1.40 1.40 1.38 1.48
1.03 1.15 1.24 1.29 1.37 1.36 1.28 1.27 1.24 1.27 1.37 1.55 1.66 1.63 1.59 1.63 1.76 1.90 2.00 2.09 2.04 2.09 2.04 2.13 2.05 1.92 1.69 1.65 1.76 1.62 1.58 1.53 1.49 1.47 1.44 1.41 1.40 1.46
1.00 1.08 1.18 1.27 1.34 1.38 1.32 1.36 1.31 1.17 1.14 1.21 1.38 1.47 1.48 1.64 1.82 2.02 2.17 2.18 2.07 2.03 1.99 2.06 1.91 1.74 1.57 1.55 1.70 1.58 1.48 1.41 1.39 1.44 1.46 1.40 1.39 1.45
0.99 1.04 1.19 1.23 1.42 1.52 1.38 1.41 1.39 1.19 1.11 1.19 1.23 1.32 1.45 1.61 1.81 2.04 2.16 2.20 2.19 2.07 1.84 1.76 1.65 1.67 1.62 1.51 1.53 1.55 1.42 1.29 1.21 1.21 1.24 1.25 1.29 1.43
1.09 1.09 1.32 1.37 1.46 1.46 1.36 1.48 1.55 1.39 1.13 1.09 1.14 1.29 1.40 1.55 1.82 1.98 2.24 2.28 2.11 2.04 1.81 1.67 1.67 1.77 1.90 1.68 1.46 1.36 1.29 1.31 1.30 1.26 1.24 1.27 1.38 1.36
0.98 1.06 1.04 1.23 1.26 1.32 1.37 1.37 1.51 1.42 1.24 1.30 1.36 1.37 1.49 1.55 1.67 1.82 2.07 2.28 2.23 2.00 1.80 1.81 1.80 1.76 1.77 1.69 1.53 1.37 1.23 1.20 1.22 1.25 1.31 1.38 1.45 1.41
0.83 0.91 0.98 1.16 1.19 1.22 1.22 1.24 1.33 1.34 1.32 1.48 1.47 1.33 1.37 1.44 1.51 1.66 1.81 1.94 1.87 1.81 1.69 1.68 1.69 1.57 1.52 1.43 1.36 1.34 1.32 1.24 1.19 1.22 1.24 1.44 1.50 1.52
0.84 0.97 1.02 1.09 1.06 1.03 1.12 1.16 1.20 1.35 1.46 1.44 1.40 1.28 1.25 1.32 1.36 1.52 1.66 1.79 1.75 1.62 1.51 1.44 1.45 1.43 1.41 1.33 1.20 1.13 1.20 1.21 1.14 1.14 1.20 1.24 1.26 1.36
0.89 1.01 1.06 1.06 1.00 1.01 1.08 1.14 1.21 1.36 1.54 1.38 1.27 1.22 1.21 1.32 1.41 1.43 1.51 1.55 1.70 1.71 1.57 1.46 1.44 1.48 1.44 1.28 1.23 1.14 1.05 1.08 1.10 1.15 1.19 1.20 1.20 1.22
0.97 1.04 1.15 1.22 1.17 1.14 1.22 1.26 1.30 1.29 1.34 1.28 1.28 1.34 1.38 1.38 1.43 1.50 1.52 1.50 1.49 1.50 1.52 1.49 1.46 1.54 1.56 1.45 1.33 1.18 1.12 1.03 1.05 1.19 1.32 1.34 1.27 1.27
1.11 1.10 1.21 1.37 1.40 1.39 1.44 1.47 1.48 1.44 1.43 1.42 1.42 1.42 1.42 1.40 1.41 1.50 1.59 1.62 1.53 1.39 1.33 1.34 1.42 1.55 1.63 1.60 1.44 1.26 1.18 1.16 1.16 1.19 1.23 1.28 1.25 1.24
1.03 1.07 1.29 1.36 1.39 1.39 1.45 1.53 1.50 1.40 1.44 1.45 1.39 1.35 1.35 1.33 1.34 1.39 1.46 1.50 1.49 1.40 1.32 1.31 1.40 1.52 1.57 1.43 1.25 1.15 1.19 1.21 1.29 1.28 1.20 1.14 1.09 1.07
1.08 1.24 1.44 1.50 1.46 1.45 1.40 1.36 1.32 1.29 1.30 1.34 1.34 1.31 1.34 1.37 1.35 1.33 1.32 1.35 1.38 1.36 1.38 1.36 1.39 1.46 1.55 1.47 1.27 1.08 1.08 1.19 1.24 1.29 1.24 1.23 1.23 1.26
1.16 1.29 1.42 1.52 1.49 1.39 1.31 1.23 1.18 1.18 1.17 1.23 1.28 1.28 1.28 1.29 1.27 1.26 1.23 1.27 1.28 1.25 1.25 1.21 1.23 1.48 1.53 1.59 1.51 1.22 1.10 1.25 1.37 1.35 1.33 1.37 1.38 1.28
1.12 1.16 1.19 1.20 1.18 1.18 1.21 1.19 1.15 1.15 1.13 1.12 1.18 1.19 1.25 1.34 1.32 1.26 1.24 1.23 1.21 1.17 1.12 1.09 1.20 1.45 1.58 1.63 1.48 1.26 1.13 1.19 1.41 1.55 1.52 1.50 1.45 1.38
1.08 1.09 1.12 1.13 1.12 1.13 1.17 1.18 1.18 1.13 1.10 1.12 1.17 1.19 1.19 1.24 1.33 1.36 1.30 1.28 1.27 1.23 1.23 1.24 1.25 1.40 1.55 1.58 1.51 1.38 1.27 1.25 1.31 1.35 1.34 1.43 1.39 1.29